sat.trackr.live / text

‹ back to catalog

STARLINK-4572

NORAD 53692 · 2022-105AW

PAYLOAD ACTIVE UNKNOWN

§ Identity

Operator
Country
US
Launch date
2022-08-31
Launch site
AFWTR
Launch vehicle
Mass (kg)
RCS (m²)

Purposes: comms

External: N2YO · Heavens-Above · Gunter

§ Orbital elements

Epoch: 2026-05-25T03:22:46.549920Z

Period
94.41 min
Inclination
97.6101°
Eccentricity
0.0002640
Mean motion
15.25213888 rev/d
Perigee alt
488.3 km
Apogee alt
492.0 km
Semi-major
6,868.3 km
B*
1.0863e-3
RAAN
33.1680°
Arg perigee
78.8824°
Mean anomaly
281.2711°
Rev number
20,519

§ Raw data

STARLINK-45721 53692U 22105AW  26145.14081655  .00027283  00000+0  10863-2 0  99942 53692  97.6101  33.1680 0002640  78.8824 281.2711 15.25213888205193

JSON: /api/v1/satellites/53692 · /tle

For live sub-satellite position, see the globe view (requires WebGL).

§ Visibility from observer

Set your observer location to see the next 7 days of passes ≥ 10°. The values pass through the URL so the page stays shareable.

No JS? Fill the form by hand. The geolocation button needs JavaScript.